User: anonymous   Login
Location: Caltech
(34.1382°N, 118.1253°W)
Time: 13:17:54
(UTC-08:00)
Language:

ASTRO E2 - Orbit

View from above orbital plane
View from above orbital plane
View from above satellite
View from above satellite

Ground track
Ground track

The orbit data is extracted from the following two-line orbital elements,

1 28773U 05025A   17023.76708267 +.00001237 +00000-0 +59338-4 0  9990
2 28773 031.3823 152.7177 0004975 337.3580 022.6847 15.15445801635426
Epoch (UTC): 23 January 2017 18:24:35
Eccentricity: 0.0004975
inclination: 31.3823°
perigee height: 516 km
apogee height: 523 km
right ascension of ascending node: 152.7177°
argument of perigee: 337.3580°
revolutions per day: 15.15445801
mean anomaly at epoch: 22.6847°
orbit number at epoch: 63542

The dashed part of the orbit path shows where the satellite is in the earth's shadow,  

DLR